North Vernon, Indiana, United States (47265)
Lat: 39.01N, Lon: 85.62W
Wx Zone: INZ072
Local Info
Past Weather Observations for Sunday, July 27, 2014

NOTE: This archive is for the closest National Weather Service station to North Vernon. Information may differ from the station used for current weather conditions.

Click here for Long-term Archive

Time Weather Temperature Dewpoint Humidity Pressure Winds Precip Visibility
23:53
Clear
70°F / 21°C 57°F / 14°C 64% 29.83 in
(1010 mb)
NW 11.5 mph
(NW 19 kph)
- 10SM
22:53
Clear
72°F / 22°C 57°F / 14°C 61% 29.83 in
(1010 mb)
NW 11.5 mph
(NW 19 kph)
- 10SM
21:53
Clear
73°F / 23°C 57°F / 14°C 57% 29.83 in
(1010 mb)
NW 18.4 mph
(NW 30 kph)
- 10SM
20:53
Mostly Cloudy
75°F / 24°C 57°F / 14°C 54% 29.8 in
(1009 mb)
NW 15 mph
(NW 24 kph)
- 10SM
19:53
Partly Cloudy
79°F / 26°C 59°F / 15°C 51% 29.77 in
(1008 mb)
NW 16.1 mph
(NW 26 kph)
- 10SM
18:53
Partly Cloudy
81°F / 27°C 64°F / 18°C 58% 29.77 in
(1008 mb)
NW 23 mph
(NW 37 kph)
- 10SM
17:53
Partly Cloudy
79°F / 26°C 66°F / 19°C 65% 29.74 in
(1007 mb)
NW 15 mph
(NW 24 kph)
0.03 in
(0.76 mm)
10SM
16:53
Partly Cloudy
84°F / 29°C 68°F / 20°C 58% 29.74 in
(1007 mb)
W 17.3 mph
(W 28 kph)
- 10SM
15:53
Clear
82°F / 28°C 70°F / 21°C 66% 29.71 in
(1006 mb)
SSW 11.5 mph
(SSW 19 kph)
- 10SM
15:09
Partly Cloudy
86°F / 30°C 72°F / 22°C 62% 29.71 in
(1006 mb)
W 13.8 mph
(W 22 kph)
- 10SM
14:53
Overcast
82°F / 28°C 73°F / 23°C 74% 29.74 in
(1007 mb)
Calm - 8SM
14:26
Mostly Cloudy
82°F / 28°C 75°F / 24°C 79% 29.74 in
(1007 mb)
SSW 9.2 mph
(SSW 15 kph)
- 8SM
13:53
Mostly Cloudy
81°F / 27°C 73°F / 23°C 79% 29.77 in
(1008 mb)
SW 8.1 mph
(SW 13 kph)
- 9SM
12:53
Overcast
Fog And Mist
73°F / 23°C 72°F / 22°C 94% 29.8 in
(1009 mb)
SW 9.2 mph
(SW 15 kph)
0.01 in
(0.25 mm)
6SM
11:53
Overcast
Light Rain
73°F / 23°C 70°F / 21°C 89% 29.8 in
(1009 mb)
S 10.4 mph
(S 17 kph)
0.00 in
(0.00 mm)
9SM
11:42
Overcast
73°F / 23°C 70°F / 21°C 89% 29.8 in
(1009 mb)
S 11.5 mph
(S 19 kph)
0.00 in
(0.00 mm)
10SM
11:00
Mostly Cloudy
75°F / 24°C 70°F / 21°C 83% 29.8 in
(1009 mb)
S 18.4 mph
(S 30 kph)
- 10SM
10:53
Mostly Cloudy
77°F / 25°C 72°F / 22°C 83% 29.8 in
(1009 mb)
S 17.3 mph
(S 28 kph)
- 10SM
10:26
Overcast
75°F / 24°C 70°F / 21°C 83% 29.8 in
(1009 mb)
SSE 11.5 mph
(SSE 19 kph)
- 10SM
10:13
Overcast
75°F / 24°C 72°F / 22°C 89% 29.8 in
(1009 mb)
SSE 12.7 mph
(SSE 20 kph)
- 10SM
09:53
Overcast
75°F / 24°C 70°F / 21°C 83% 29.83 in
(1010 mb)
SW 11.5 mph
(SW 19 kph)
0.07 in
(1.78 mm)
10SM
09:44
Overcast
73°F / 23°C 70°F / 21°C 89% 29.8 in
(1009 mb)
SW 11.5 mph
(SW 19 kph)
0.07 in
(1.78 mm)
10SM
09:16
Overcast
Light Rain
73°F / 23°C 70°F / 21°C 89% 29.83 in
(1010 mb)
SW 9.2 mph
(SW 15 kph)
0.07 in
(1.78 mm)
9SM
09:04
Overcast
Thunder Storms
73°F / 23°C 70°F / 21°C 89% 29.83 in
(1010 mb)
S 12.7 mph
(S 20 kph)
0.07 in
(1.78 mm)
2 1/2SM
08:53
Overcast
73°F / 23°C 70°F / 21°C 89% 29.8 in
(1009 mb)
S 11.5 mph
(S 19 kph)
0.02 in
(0.51 mm)
10SM
08:21
Overcast
Thunder Storms
73°F / 23°C 70°F / 21°C 89% 29.83 in
(1010 mb)
SSE 11.5 mph
(SSE 19 kph)
0.02 in
(0.51 mm)
10SM
08:10
Overcast
Light Rain
73°F / 23°C 70°F / 21°C 89% 29.83 in
(1010 mb)
SSE 9.2 mph
(SSE 15 kph)
0.02 in
(0.51 mm)
7SM
08:06
Overcast
Thunder Storms
73°F / 23°C 70°F / 21°C 89% 29.83 in
(1010 mb)
S 8.1 mph
(S 13 kph)
0.02 in
(0.51 mm)
6SM
07:53
Overcast
Thunder Storms
73°F / 23°C 70°F / 21°C 89% 29.83 in
(1010 mb)
SSE 10.4 mph
(SSE 17 kph)
0.03 in
(0.76 mm)
10SM
07:03
Partly Cloudy
Fog And Mist
72°F / 22°C 70°F / 21°C 94% 29.83 in
(1010 mb)
SSE 9.2 mph
(SSE 15 kph)
- 5SM
06:53
Mostly Cloudy
Fog And Mist
72°F / 22°C 70°F / 21°C 94% 29.8 in
(1009 mb)
S 13.8 mph
(S 22 kph)
0.00 in
(0.00 mm)
6SM
06:28
Mostly Cloudy
Fog And Mist
72°F / 22°C 68°F / 20°C 88% 29.83 in
(1010 mb)
SW 4.6 mph
(SW 7 kph)
0.00 in
(0.00 mm)
6SM
06:15
Mostly Cloudy
Fog And Mist
72°F / 22°C 70°F / 21°C 94% 29.8 in
(1009 mb)
S 8.1 mph
(S 13 kph)
0.00 in
(0.00 mm)
6SM
06:03
Mostly Cloudy
Fog And Mist
72°F / 22°C 68°F / 20°C 88% 29.77 in
(1008 mb)
S 18.4 mph
(S 30 kph)
0.00 in
(0.00 mm)
5SM
05:53
Mostly Cloudy
Thunder Storms
72°F / 22°C 68°F / 20°C 88% 29.8 in
(1009 mb)
SSE 11.5 mph
(SSE 19 kph)
0.07 in
(1.78 mm)
4SM
05:51
Overcast
Thunder Storms
72°F / 22°C 68°F / 20°C 88% 29.8 in
(1009 mb)
SSE 10.4 mph
(SSE 17 kph)
0.07 in
(1.78 mm)
3SM
05:21
Overcast
Thunder Storms
72°F / 22°C 70°F / 21°C 94% 29.83 in
(1010 mb)
S 6.9 mph
(S 11 kph)
0.03 in
(0.76 mm)
3SM
04:53
Mostly Cloudy
Fog And Mist
72°F / 22°C 70°F / 21°C 94% 29.8 in
(1009 mb)
S 5.8 mph
(S 9 kph)
- 4SM
03:53
Partly Cloudy
Fog And Mist
70°F / 21°C 66°F / 19°C 88% 29.83 in
(1010 mb)
S 5.8 mph
(S 9 kph)
- 4SM
02:53
Overcast
73°F / 23°C 70°F / 21°C 89% 29.86 in
(1011 mb)
Calm - 7SM
02:42
Overcast
73°F / 23°C 70°F / 21°C 89% 29.86 in
(1011 mb)
W 3.5 mph
(W 6 kph)
- 7SM
02:33
Mostly Cloudy
72°F / 22°C 70°F / 21°C 94% 29.86 in
(1011 mb)
W 3.5 mph
(W 6 kph)
- 8SM
01:53
Clear
72°F / 22°C 70°F / 21°C 94% 29.89 in
(1012 mb)
SSW 5.8 mph
(SSW 9 kph)
- 10SM
01:36
Partly Cloudy
73°F / 23°C 70°F / 21°C 89% 29.89 in
(1012 mb)
SSW 6.9 mph
(SSW 11 kph)
- 7SM
01:28
Mostly Cloudy
Fog And Mist
73°F / 23°C 70°F / 21°C 89% 29.89 in
(1012 mb)
SSW 6.9 mph
(SSW 11 kph)
- 4SM
01:01
Mostly Cloudy
Fog And Mist
73°F / 23°C 72°F / 22°C 94% 29.89 in
(1012 mb)
NW 4.6 mph
(NW 7 kph)
- 3SM
00:53
Partly Cloudy
Fog And Mist
73°F / 23°C 72°F / 22°C 94% 29.89 in
(1012 mb)
NW 4.6 mph
(NW 7 kph)
- 4SM
Time Weather Temperature Dewpoint Humidity Pressure Winds Precip Visibility


Weather for websites

WeatherForYou.com, LLC is not responsible for any damages or problems caused by this service. Current weather conditions are obtained from the closest station including government and personal stations which may have varying degrees of accuracy. Weather forecasts are derived from the NOAA NDFD. Like all things, this site belongs to Jesus Christ... He just trusts me to maintain it. If you have any questions or comments email webmaster@weatherforyou.com

Copyright © 2014, WeatherForYou.com LLC. All rights reserved.